Fort Meade, MD

4:39 PM EDT on April 25, 2017 (GMT -0400)
Tipton

Weather History for KFME - April, 2013

Change the Weather History Date:

Thursday, April 18, 2013

  Actual Average (KBWI) Record (KBWI)
Temperature  
Mean Temperature 64 °F -  
Max Temperature 73 °F 66 °F 94 °F (1896)
Min Temperature 55 °F 45 °F 26 °F (1875)
Degree Days  
Heating Degree Days 1    
Growing Degree Days 14 (Base 50)    
Moisture  
Dew Point 55 °F    
Average Humidity 78    
Maximum Humidity 94    
Minimum Humidity 57    
Precipitation  
Precipitation 0.00 in - - ()
Sea Level Pressure  
Sea Level Pressure 30.18 in    
Wind  
Wind Speed 7 mph (ESE)    
Max Wind Speed 20 mph    
Max Gust Speed 26 mph    
Visibility 8 miles    
Events      
Averages and records for this station are not official NWS values.
T = Trace of Precipitation, MM = Missing Value Source: NWS Daily Summary

Daily Weather History Graph

Daily Weather History Graph

Search for Another Location

Airport or City:

Trip Planner

Search our weather history database for the weather conditions in past years. The results will help you decide how hot, cold, wet, or windy it might be!

Date:

Astronomy

Apr. 18, 2013 Rise Set
Actual Time 6:25 AM EDT 7:47 PM EDT
Civil Twilight 5:57 AM EDT 8:15 PM EDT
Nautical Twilight 5:24 AM EDT 8:48 PM EDT
Astronomical Twilight 4:49 AM EDT 9:24 PM EDT
Moon 12:35 PM EDT (4/18) 2:00 AM EDT (4/18)
Length of Visible Light 14h 17m
Length of Day
13h 21m
First Quarter, 51% of the Moon is Illuminated
Apr 18
First Quarter
Apr 25
Full
May 2
Last Quarter
May 9
New
May 18
First Quarter

Hourly Weather History & Observations

Time (EDT) Temp. Dew Point Humidity Pressure Visibility Wind Dir Wind Speed Gust Speed Precip Events Conditions
12:21 AM 60.8 °F 51.8 °F 72% 30.26 in 10.0 mi ESE 4.6 mph - N/A   Overcast
12:42 AM 59.0 °F 51.8 °F 77% 30.26 in 10.0 mi East 4.6 mph - N/A   Overcast
1:03 AM 59.0 °F 51.8 °F 77% 30.26 in 10.0 mi ENE 4.6 mph - N/A   Overcast
1:21 AM 59.0 °F 51.8 °F 77% 30.26 in 10.0 mi ENE 3.5 mph - N/A   Overcast
1:42 AM 59.0 °F 51.8 °F 77% 30.26 in 10.0 mi East 4.6 mph - N/A   Overcast
2:03 AM 59.0 °F 51.8 °F 77% 30.24 in 10.0 mi NE 3.5 mph - N/A   Overcast
2:21 AM 59.0 °F 51.8 °F 77% 30.25 in 10.0 mi East 6.9 mph - N/A   Overcast
2:42 AM 59.0 °F 50.0 °F 72% 30.24 in 10.0 mi ENE 6.9 mph - N/A   Overcast
3:03 AM 57.2 °F 50.0 °F 77% 30.24 in 10.0 mi ENE 5.8 mph - N/A   Overcast
3:21 AM 57.2 °F 50.0 °F 77% 30.24 in 10.0 mi East 8.1 mph - N/A   Overcast
3:42 AM 57.2 °F 50.0 °F 77% 30.22 in 10.0 mi East 9.2 mph - N/A   Overcast
4:03 AM 57.2 °F 50.0 °F 77% 30.23 in 10.0 mi ENE 8.1 mph - N/A   Overcast
4:21 AM 57.2 °F 50.0 °F 77% 30.23 in 10.0 mi ENE 6.9 mph - N/A   Overcast
4:42 AM 57.2 °F 50.0 °F 77% 30.23 in 10.0 mi East 3.5 mph - N/A   Overcast
5:03 AM 55.4 °F 51.8 °F 88% 30.23 in 7.0 mi East 4.6 mph - N/A   Overcast
5:21 AM 55.4 °F 51.8 °F 88% 30.22 in 7.0 mi East 4.6 mph - N/A   Overcast
5:42 AM 55.4 °F 51.8 °F 88% 30.21 in 7.0 mi East 4.6 mph - N/A   Overcast
6:03 AM 55.4 °F 51.8 °F 88% 30.22 in 7.0 mi East 5.8 mph - N/A   Overcast
6:24 AM 55.4 °F 51.8 °F 88% 30.22 in 7.0 mi East 4.6 mph - N/A   Overcast
6:42 AM 57.2 °F 51.8 °F 82% 30.23 in 7.0 mi East 3.5 mph - N/A   Overcast
7:03 AM 57.2 °F 53.6 °F 88% 30.22 in 5.0 mi East 6.9 mph - N/A   Overcast
7:24 AM 57.2 °F 53.6 °F 88% 30.23 in 4.0 mi ESE 4.6 mph - N/A   Overcast
7:42 AM 57.2 °F 53.6 °F 88% 30.24 in 5.0 mi East 4.6 mph - N/A   Overcast
8:03 AM 59.0 °F 53.6 °F 82% 30.25 in 5.0 mi ESE 6.9 mph - N/A   Overcast
8:24 AM 57.2 °F 53.6 °F 88% 30.24 in 3.0 mi East 6.9 mph - N/A   Overcast
8:42 AM 57.2 °F 55.4 °F 94% 30.25 in 4.0 mi ESE 8.1 mph - N/A   Overcast
9:03 AM 57.2 °F 55.4 °F 94% 30.25 in 4.0 mi ESE 6.9 mph - N/A   Overcast
9:24 AM 57.2 °F 55.4 °F 94% 30.25 in 4.0 mi ESE 5.8 mph - N/A   Overcast
9:42 AM 59.0 °F 55.4 °F 88% 30.25 in 4.0 mi SE 8.1 mph - N/A   Overcast
10:03 AM 59.0 °F 55.4 °F 88% 30.25 in 3.0 mi ESE 8.1 mph - N/A   Overcast
10:24 AM 59.0 °F 55.4 °F 88% 30.26 in 5.0 mi SE 5.8 mph - N/A   Overcast
10:42 AM 59.0 °F 55.4 °F 88% 30.25 in 5.0 mi ESE 8.1 mph - N/A   Overcast
11:03 AM 59.0 °F 57.2 °F 94% 30.25 in 4.0 mi ESE 5.8 mph - N/A   Overcast
11:24 AM 59.0 °F 57.2 °F 94% 30.24 in 5.0 mi ESE 6.9 mph - N/A   Overcast
11:42 AM 60.8 °F 57.2 °F 88% 30.24 in 5.0 mi ESE 5.8 mph - N/A   Overcast
12:24 PM 62.6 °F 59.0 °F 88% 30.21 in 10.0 mi SE 6.9 mph - N/A   Overcast
12:42 PM 64.4 °F 59.0 °F 83% 30.21 in 10.0 mi SSE 5.8 mph - N/A   Overcast
1:03 PM 64.4 °F 59.0 °F 83% 30.20 in 10.0 mi SE 10.4 mph - N/A   Overcast
1:24 PM 66.2 °F 59.0 °F 78% 30.19 in 10.0 mi SE 8.1 mph - N/A   Overcast
1:42 PM 66.2 °F 59.0 °F 78% 30.19 in 10.0 mi SSE 10.4 mph - N/A   Overcast
2:03 PM 68.0 °F 59.0 °F 73% 30.18 in 10.0 mi SE 10.4 mph - N/A   Mostly Cloudy
2:24 PM 69.8 °F 59.0 °F 68% 30.17 in 10.0 mi SE 12.7 mph 16.1 mph N/A   Mostly Cloudy
2:45 PM 71.6 °F 59.0 °F 64% 30.16 in 10.0 mi SSE 6.9 mph - N/A   Mostly Cloudy
3:45 PM 73.4 °F 59.0 °F 61% 30.12 in 10.0 mi SE 10.4 mph 21.9 mph N/A   Scattered Clouds
4:03 PM 73.4 °F 59.0 °F 61% 30.12 in 10.0 mi SE 11.5 mph 20.7 mph N/A   Clear
5:03 PM 71.6 °F 57.2 °F 60% 30.10 in 10.0 mi SE 11.5 mph 19.6 mph N/A   Clear
5:24 PM 71.6 °F 57.2 °F 60% 30.10 in 10.0 mi SE 19.6 mph 26.5 mph N/A   Clear
6:03 PM 71.6 °F 55.4 °F 57% 30.09 in 10.0 mi SE 13.8 mph 21.9 mph N/A   Scattered Clouds
6:24 PM 69.8 °F 55.4 °F 60% 30.08 in 10.0 mi SE 11.5 mph 20.7 mph N/A   Scattered Clouds
6:45 PM 69.8 °F 55.4 °F 60% 30.08 in 10.0 mi SE 11.5 mph 16.1 mph N/A   Clear
7:03 PM 69.8 °F 55.4 °F 60% 30.07 in 10.0 mi SE 9.2 mph - N/A   Clear
7:24 PM 68.0 °F 55.4 °F 64% 30.07 in 10.0 mi SE 8.1 mph - N/A   Clear
7:45 PM 68.0 °F 55.4 °F 64% 30.07 in 10.0 mi SE 10.4 mph 17.3 mph N/A   Clear
8:03 PM 66.2 °F 53.6 °F 64% 30.07 in 10.0 mi SE 11.5 mph 17.3 mph N/A   Clear
8:24 PM 64.4 °F 53.6 °F 68% 30.08 in 10.0 mi SE 12.7 mph 17.3 mph N/A   Clear
8:45 PM 64.4 °F 53.6 °F 68% 30.08 in 10.0 mi SE 11.5 mph - N/A   Clear
9:03 PM 64.4 °F 53.6 °F 68% 30.08 in 10.0 mi SE 9.2 mph - N/A   Clear
9:24 PM 64.4 °F 55.4 °F 73% 30.08 in 10.0 mi SE 6.9 mph - N/A   Clear
9:45 PM 62.6 °F 55.4 °F 77% 30.07 in 10.0 mi SE 8.1 mph - N/A   Clear
10:03 PM 62.6 °F 55.4 °F 77% 30.07 in 10.0 mi SSE 9.2 mph - N/A   Clear
10:24 PM 62.6 °F 55.4 °F 77% 30.06 in 10.0 mi SSE 9.2 mph - N/A   Clear
10:45 PM 62.6 °F 55.4 °F 77% 30.05 in 10.0 mi SE 5.8 mph - N/A   Clear
11:03 PM 62.6 °F 55.4 °F 77% 30.05 in 10.0 mi SSE 8.1 mph - N/A   Clear
11:24 PM 62.6 °F 55.4 °F 77% 30.04 in 10.0 mi SSE 6.9 mph - N/A   Clear
11:45 PM 60.8 °F 55.4 °F 82% 30.04 in 10.0 mi SSE 4.6 mph - N/A   Clear